Regional Weather Roundup
Issued by NWS

Home | Current Version | Previous Version | Text Only | Print | Product List | Glossary On
Versions: 1 2 3 4 5 6 7 8 9 10 11 12 13 14 15 16 17 18 19 20 21 22 23 24 25 26 27 28
000
ASUS45 KBOI 310610
RWRID
WEATHER ROUNDUP FOR IDAHO
NATIONAL WEATHER SERVICE BOISE ID
1200 AM MDT FRI OCT 31 2014

NOTE: "FAIR" INDICATES FEW OR NO CLOUDS BELOW 12000 FEET
WITH NO SIGNIFICANT WEATHER AND/OR OBSTRUCTIONS TO VISIBILITY

IDZ012-014-310700-
SOUTHWEST IDAHO


CITY           SKY/WX    TMP DP  RH WIND       PRES   REMARKS
BOISE          CLOUDY    52  36  54 CALM      29.87F
CALDWELL       CLOUDY    48  36  61 CALM      29.90F
MOUNTAIN HOME  CLOUDY    62  31  31 E22       29.89F
$$

IDZ016-017-310700-
SOUTHCENTRAL IDAHO


CITY           SKY/WX    TMP DP  RH WIND       PRES   REMARKS
BURLEY         MOCLDY    47  29  49 CALM      30.01F
JEROME         CLOUDY    52  30  43 NE18      29.99F
TWIN FALLS     CLOUDY    61  21  21 SE8       29.97F
$$

IDZ019>023-310700-
SOUTHEAST IDAHO


CITY           SKY/WX    TMP DP  RH WIND       PRES   REMARKS
IDAHO FALLS    MOCLDY    40  31  70 NW5       30.10F
POCATELLO      CLEAR     41  31  67 NW7       30.08F
REXBURG        PTCLDY    41  31  67 NE5       30.12F
$$

IDZ006-010-011-018-031-032-310700-
CENTRAL IDAHO MOUNTAINS


CITY           SKY/WX    TMP DP  RH WIND       PRES   REMARKS
MCCALL         MOCLDY    42  37  82 CALM      29.95F
HAILEY         CLOUDY    46  30  53 NW8       30.11F
STANLEY          N/A     43  27  53 E5        30.09F
SALMON         CLOUDY    43  37  81 CALM      30.04F
CHALLIS        CLOUDY    43  32  65 CALM      30.07F
$$

IDZ002-004-006-007-026-310700-
NORTHERN IDAHO


CITY           SKY/WX    TMP DP  RH WIND       PRES   REMARKS
LEWISTON       CLOUDY    56  47  71 SE5       29.79F
LOWELL           N/A     49  47  93 N5        29.91F
COEUR D`ALENE    N/A    N/A N/A N/A MISG        N/A
MULLAN PASS    MOCLDY    39  37  92 S13       29.96F WCI  31
$$



USA.gov is the U.S. government's official web portal to all federal, state and local government web resources and services.